| time (UTC) | temp F | wind direction | speed knots | gust knots | rain 1hr in | rain 24hr in | rain mn in | humidity % | barometer mb |
| 20260510060046 | 57 | 147 | 6.1 | 13.0 | 0.00 | 0.00 | 0.00 | 72 | 1029.8 |
| 20260510054536 | 57 | 128 | 5.2 | 10.4 | 0.00 | 0.00 | 0.00 | 72 | 1029.7 |
| 20260510053035 | 58 | 171 | 5.2 | 10.4 | 0.00 | 0.00 | 0.00 | 71 | 1029.5 |
| 20260510051543 | 58 | 170 | 6.1 | 11.3 | 0.00 | 0.00 | 0.00 | 71 | 1029.5 |
| 20260510050036 | 58 | 151 | 5.2 | 10.4 | 0.00 | 0.00 | 0.00 | 72 | 1029.5 |
| 20260510044538 | 58 | 161 | 5.2 | 9.6 | 0.00 | 0.00 | 0.00 | 71 | 1029.4 |
| 20260510043047 | 59 | 98 | 6.1 | 10.4 | 0.00 | 0.00 | 0.00 | 72 | 1029.4 |
| 20260510041535 | 58 | 134 | 4.3 | 10.4 | 0.00 | 0.00 | 0.00 | 72 | 1029.4 |
| 20260510040036 | 58 | 153 | 4.3 | 9.6 | 0.00 | 0.00 | 0.00 | 73 | 1029.5 |
| 20260510034539 | 58 | 152 | 6.1 | 9.6 | 0.00 | 0.00 | 0.00 | 73 | 1029.5 |
| 20260510033030 | 58 | 104 | 4.3 | 9.6 | 0.00 | 0.00 | 0.00 | 74 | 1029.5 |
| 20260510031604 | 57 | 176 | 6.1 | 11.3 | 0.00 | 0.00 | 0.00 | 74 | 1029.6 |
| 20260510030038 | 57 | 155 | 3.5 | 12.2 | 0.00 | 0.00 | 0.00 | 75 | 1029.8 |
| 20260510024537 | 57 | 133 | 6.1 | 11.3 | 0.00 | 0.00 | 0.00 | 76 | 1029.9 |
| 20260510023045 | 56 | 150 | 5.2 | 11.3 | 0.00 | 0.00 | 0.00 | 77 | 1029.9 |
| 20260510021542 | 56 | 117 | 4.3 | 10.4 | 0.00 | 0.00 | 0.00 | 79 | 1030.1 |
| 20260510020035 | 55 | 156 | 6.1 | 12.2 | 0.00 | 0.00 | 0.00 | 79 | 1030.3 |
| 20260510014535 | 55 | 139 | 5.2 | 12.2 | 0.00 | 0.00 | 0.00 | 81 | 1030.4 |
| 20260510013037 | 54 | 148 | 7.8 | 11.3 | 0.00 | 0.00 | 0.00 | 82 | 1030.6 |
| 20260510012521 | 54 | 121 | 6.1 | 12.2 | 0.00 | 0.00 | 0.00 | 83 | 1030.6 |
| 20260510012019 | 54 | 118 | 7.0 | 12.2 | 0.00 | 0.00 | 0.00 | 84 | 1030.7 |
| 20260510011608 | 53 | 97 | 6.1 | 12.2 | 0.00 | 0.00 | 0.00 | 85 | 1030.7 |
| 20260510011020 | 53 | 113 | 6.1 | 12.2 | 0.00 | 0.00 | 0.00 | 86 | 1030.7 |
| 20260510010518 | 53 | 121 | 7.8 | 13.0 | 0.00 | 0.00 | 0.00 | 86 | 1030.7 |
| 20260510010042 | 53 | 132 | 7.0 | 13.9 | 0.00 | 0.00 | 0.00 | 87 | 1030.7 |
| 20260510005517 | 52 | 175 | 7.0 | 13.9 | 0.00 | 0.00 | 0.00 | 88 | 1030.8 |
| 20260510005017 | 52 | 127 | 7.8 | 13.9 | 0.00 | 0.00 | 0.00 | 89 | 1030.7 |
| 20260510004536 | 52 | 166 | 7.0 | 16.5 | 0.00 | 0.00 | 0.00 | 89 | 1030.7 |
| 20260510004019 | 52 | 155 | 8.7 | 16.5 | 0.00 | 0.00 | 0.00 | 89 | 1030.7 |
| 20260510003519 | 52 | 152 | 9.6 | 16.5 | 0.00 | 0.00 | 0.00 | 89 | 1030.7 |
| 20260510003031 | 52 | 134 | 7.8 | 14.8 | 0.00 | 0.00 | 0.00 | 89 | 1030.7 |
| 20260510002519 | 52 | 157 | 7.8 | 16.5 | 0.00 | 0.00 | 0.00 | 90 | 1030.7 |
| 20260510002022 | 52 | 156 | 9.6 | 16.5 | 0.00 | 0.00 | 0.00 | 91 | 1030.7 |
| 20260510001533 | 52 | 162 | 6.1 | 13.0 | 0.00 | 0.00 | 0.00 | 92 | 1030.6 |
| 20260510001020 | 51 | 119 | 7.8 | 13.0 | 0.00 | 0.00 | 0.00 | 92 | 1030.6 |
| 20260510000518 | 51 | 157 | 7.0 | 13.0 | 0.00 | 0.00 | 0.00 | 92 | 1030.6 |
| 20260510000035 | 51 | 107 | 7.0 | 13.9 | 0.00 | 0.00 | 0.00 | 92 | 1030.7 |
| 20260509235518 | 50 | 120 | 7.0 | 13.9 | 0.00 | 0.00 | 0.00 | 93 | 1030.7 |
| 20260509235016 | 50 | 143 | 8.7 | 15.6 | 0.00 | 0.00 | 0.00 | 93 | 1030.7 |
| 20260509234536 | 50 | 154 | 7.8 | 15.6 | 0.00 | 0.00 | 0.00 | 93 | 1030.7 |
| 20260509234017 | 50 | 137 | 7.8 | 14.8 | 0.00 | 0.00 | 0.00 | 94 | 1030.7 |
| 20260509233516 | 50 | 117 | 7.8 | 13.0 | 0.00 | 0.00 | 0.00 | 94 | 1030.7 |
| 20260509233035 | 50 | 149 | 7.8 | 16.5 | 0.00 | 0.00 | 0.00 | 94 | 1030.7 |
| 20260509232521 | 50 | 138 | 7.8 | 16.5 | 0.00 | 0.00 | 0.00 | 94 | 1030.6 |
| 20260509232019 | 49 | 125 | 7.0 | 12.2 | 0.00 | 0.00 | 0.00 | 94 | 1030.6 |
| 20260509231537 | 49 | 113 | 6.1 | 13.9 | 0.00 | 0.00 | 0.00 | 94 | 1030.6 |
| 20260509231020 | 49 | 144 | 7.0 | 13.9 | 0.00 | 0.00 | 0.00 | 94 | 1030.5 |
| 20260509230519 | 49 | 132 | 6.1 | 12.2 | 0.00 | 0.00 | 0.00 | 94 | 1030.5 |
| 20260509230037 | 49 | 124 | 4.3 | 14.8 | 0.00 | 0.00 | 0.00 | 94 | 1030.5 |
| 20260509225520 | 49 | 122 | 7.0 | 14.8 | 0.00 | 0.00 | 0.00 | 94 | 1030.4 |
| 20260509225019 | 49 | 153 | 7.0 | 17.4 | 0.00 | 0.00 | 0.00 | 94 | 1030.4 |
| 20260509224535 | 49 | 151 | 7.8 | 17.4 | 0.00 | 0.00 | 0.00 | 94 | 1030.4 |
| 20260509224019 | 49 | 122 | 8.7 | 16.5 | 0.00 | 0.00 | 0.00 | 94 | 1030.2 |
| 20260509223519 | 49 | 130 | 7.8 | 19.1 | 0.00 | 0.00 | 0.00 | 94 | 1030.2 |
| 20260509223033 | 49 | 146 | 8.7 | 19.1 | 0.00 | 0.00 | 0.00 | 94 | 1030.2 |
| 20260509222518 | 49 | 140 | 6.1 | 16.5 | 0.00 | 0.00 | 0.00 | 94 | 1030.3 |
| 20260509222019 | 49 | 157 | 10.4 | 17.4 | 0.00 | 0.00 | 0.00 | 94 | 1030.1 |
| 20260509221535 | 49 | 145 | 7.0 | 17.4 | 0.00 | 0.00 | 0.00 | 94 | 1030.1 |
| 20260509221019 | 49 | 163 | 5.2 | 13.0 | 0.00 | 0.00 | 0.00 | 94 | 1030.0 |
| 20260509220518 | 49 | 148 | 5.2 | 12.2 | 0.00 | 0.00 | 0.00 | 94 | 1030.1 |
| 20260509220037 | 49 | 134 | 7.0 | 12.2 | 0.00 | 0.00 | 0.00 | 94 | 1029.9 |
| 20260509215523 | 48 | 144 | 7.8 | 13.9 | 0.00 | 0.00 | 0.00 | 94 | 1029.9 |
| 20260509215020 | 48 | 157 | 7.8 | 14.8 | 0.00 | 0.00 | 0.00 | 94 | 1029.8 |
| 20260509214537 | 48 | 154 | 7.0 | 14.8 | 0.00 | 0.00 | 0.00 | 94 | 1029.8 |
| 20260509214019 | 48 | 129 | 7.0 | 14.8 | 0.00 | 0.00 | 0.00 | 94 | 1029.7 |
| 20260509213520 | 48 | 133 | 7.8 | 14.8 | 0.00 | 0.00 | 0.00 | 94 | 1029.7 |
| 20260509213042 | 48 | 159 | 6.1 | 15.6 | 0.00 | 0.00 | 0.00 | 94 | 1029.7 |
| 20260509212519 | 48 | 134 | 7.8 | 17.4 | 0.00 | 0.00 | 0.00 | 94 | 1029.6 |
| 20260509212019 | 48 | 153 | 7.8 | 17.4 | 0.00 | 0.00 | 0.00 | 94 | 1029.5 |
| 20260509211606 | 48 | 152 | 7.0 | 13.0 | 0.00 | 0.00 | 0.00 | 94 | 1029.5 |
| 20260509211019 | 48 | 136 | 7.0 | 13.0 | 0.00 | 0.00 | 0.00 | 94 | 1029.4 |
| 20260509210519 | 48 | 110 | 7.0 | 13.0 | 0.00 | 0.00 | 0.00 | 94 | 1029.3 |
| 20260509210037 | 48 | 157 | 6.1 | 13.0 | 0.00 | 0.00 | 0.00 | 94 | 1029.3 |
| 20260509205520 | 48 | 160 | 4.3 | 14.8 | 0.00 | 0.00 | 0.00 | 94 | 1029.2 |
| 20260509205019 | 48 | 120 | 5.2 | 14.8 | 0.00 | 0.00 | 0.00 | 94 | 1029.1 |
| 20260509204540 | 48 | 126 | 7.0 | 13.9 | 0.00 | 0.00 | 0.00 | 94 | 1029.2 |
| 20260509204020 | 48 | 154 | 7.0 | 12.2 | 0.00 | 0.00 | 0.00 | 94 | 1029.2 |
| 20260509203516 | 48 | 121 | 5.2 | 12.2 | 0.00 | 0.00 | 0.00 | 94 | 1029.1 |
| 20260509203041 | 48 | 149 | 4.3 | 13.0 | 0.00 | 0.00 | 0.00 | 94 | 1029.1 |
| 20260509202519 | 48 | 145 | 7.0 | 13.0 | 0.00 | 0.00 | 0.00 | 94 | 1029.1 |
| 20260509202022 | 48 | 111 | 7.0 | 12.2 | 0.00 | 0.00 | 0.00 | 94 | 1029.0 |
| 20260509201535 | 48 | 143 | 7.0 | 14.8 | 0.00 | 0.00 | 0.00 | 94 | 1028.8 |
| 20260509201021 | 48 | 161 | 6.1 | 14.8 | 0.00 | 0.00 | 0.00 | 94 | 1028.8 |
| 20260509200520 | 49 | 129 | 7.8 | 13.9 | 0.00 | 0.00 | 0.00 | 94 | 1028.8 |
| 20260509200036 | 49 | 130 | 7.0 | 13.0 | 0.00 | 0.00 | 0.00 | 94 | 1028.8 |
| 20260509195521 | 49 | 144 | 3.5 | 13.0 | 0.00 | 0.00 | 0.00 | 94 | 1028.7 |
| 20260509195018 | 49 | 130 | 5.2 | 16.5 | 0.00 | 0.00 | 0.00 | 94 | 1028.6 |
| 20260509194538 | 49 | 161 | 7.0 | 16.5 | 0.00 | 0.00 | 0.00 | 94 | 1028.6 |
| 20260509194019 | 49 | 157 | 9.6 | 16.5 | 0.00 | 0.00 | 0.00 | 94 | 1028.5 |
| 20260509193519 | 49 | 125 | 4.3 | 13.0 | 0.00 | 0.00 | 0.00 | 94 | 1028.5 |
| 20260509193035 | 49 | 149 | 6.1 | 13.0 | 0.00 | 0.00 | 0.00 | 94 | 1028.4 |
| 20260509192519 | 49 | 153 | 6.1 | 14.8 | 0.00 | 0.00 | 0.00 | 94 | 1028.2 |
| 20260509192019 | 49 | 132 | 7.0 | 17.4 | 0.00 | 0.00 | 0.00 | 94 | 1028.2 |
| 20260509191535 | 49 | 126 | 7.0 | 17.4 | 0.00 | 0.00 | 0.00 | 94 | 1028.1 |
| 20260509191020 | 49 | 115 | 7.0 | 14.8 | 0.00 | 0.00 | 0.00 | 94 | 1028.0 |
| 20260509190520 | 49 | 158 | 7.0 | 14.8 | 0.00 | 0.00 | 0.00 | 94 | 1027.9 |
| 20260509190044 | 49 | 191 | 6.1 | 16.5 | 0.00 | 0.00 | 0.00 | 94 | 1027.8 |
| 20260509185520 | 49 | 155 | 7.8 | 16.5 | 0.00 | 0.00 | 0.00 | 94 | 1027.8 |
| 20260509185019 | 49 | 104 | 7.8 | 14.8 | 0.00 | 0.00 | 0.00 | 94 | 1027.8 |
| 20260509184533 | 49 | 134 | 7.0 | 14.8 | 0.00 | 0.00 | 0.00 | 94 | 1027.7 |
| 20260509184019 | 49 | 142 | 8.7 | 14.8 | 0.00 | 0.00 | 0.00 | 94 | 1027.7 |
| 20260509183517 | 49 | 115 | 7.8 | 13.9 | 0.00 | 0.00 | 0.00 | 94 | 1027.6 |
| 20260509183038 | 49 | 123 | 5.2 | 13.9 | 0.00 | 0.00 | 0.00 | 94 | 1027.6 |
| 20260509182520 | 49 | 144 | 7.8 | 13.9 | 0.00 | 0.00 | 0.00 | 94 | 1027.6 |
| 20260509182021 | 49 | 124 | 9.6 | 16.5 | 0.00 | 0.00 | 0.00 | 94 | 1027.6 |
| 20260509181539 | 49 | 135 | 8.7 | 18.2 | 0.00 | 0.00 | 0.00 | 94 | 1027.6 |
| 20260509181019 | 49 | 157 | 10.4 | 18.2 | 0.00 | 0.00 | 0.00 | 94 | 1027.5 |
| 20260509180519 | 49 | 116 | 9.6 | 15.6 | 0.00 | 0.00 | 0.00 | 94 | 1027.5 |
| 20260509180036 | 50 | 135 | 7.8 | 15.6 | 0.00 | 0.00 | 0.00 | 94 | 1027.6 |
| 20260509175519 | 50 | 133 | 7.0 | 17.4 | 0.00 | 0.00 | 0.00 | 94 | 1027.5 |
| 20260509175019 | 50 | 132 | 9.6 | 17.4 | 0.00 | 0.00 | 0.00 | 94 | 1027.6 |
| 20260509174537 | 50 | 169 | 8.7 | 16.5 | 0.00 | 0.00 | 0.00 | 94 | 1027.6 |
| 20260509174020 | 50 | 158 | 7.0 | 16.5 | 0.00 | 0.00 | 0.00 | 94 | 1027.6 |
| 20260509173520 | 50 | 124 | 8.7 | 16.5 | 0.00 | 0.00 | 0.00 | 94 | 1027.6 |
| 20260509173030 | 50 | 148 | 7.0 | 13.9 | 0.00 | 0.00 | 0.00 | 94 | 1027.7 |
| 20260509172516 | 50 | 123 | 5.2 | 16.5 | 0.00 | 0.00 | 0.00 | 94 | 1027.8 |
| 20260509172019 | 50 | 178 | 7.0 | 16.5 | 0.00 | 0.00 | 0.00 | 94 | 1027.8 |
| 20260509171539 | 50 | 132 | 7.8 | 17.4 | 0.00 | 0.00 | 0.00 | 94 | 1027.7 |
| 20260509171018 | 50 | 149 | 9.6 | 19.1 | 0.00 | 0.00 | 0.00 | 94 | 1027.7 |
| 20260509170520 | 50 | 136 | 10.4 | 19.1 | 0.00 | 0.00 | 0.00 | 94 | 1027.8 |
| 20260509170036 | 50 | 123 | 7.0 | 13.0 | 0.00 | 0.00 | 0.00 | 94 | 1027.7 |
| 20260509165520 | 50 | 162 | 8.7 | 17.4 | 0.00 | 0.00 | 0.00 | 95 | 1027.7 |
| 20260509165019 | 50 | 126 | 8.7 | 17.4 | 0.00 | 0.00 | 0.00 | 94 | 1027.8 |
| 20260509164535 | 50 | 126 | 9.6 | 16.5 | 0.00 | 0.00 | 0.00 | 95 | 1027.8 |
| 20260509164019 | 50 | 149 | 7.0 | 13.0 | 0.00 | 0.00 | 0.00 | 95 | 1027.9 |
| 20260509163519 | 50 | 121 | 6.1 | 13.9 | 0.00 | 0.00 | 0.00 | 94 | 1027.9 |
| 20260509163049 | 50 | 150 | 4.3 | 15.6 | 0.00 | 0.00 | 0.00 | 94 | 1027.8 |
| 20260509162519 | 50 | 153 | 5.2 | 16.5 | 0.00 | 0.00 | 0.00 | 94 | 1027.8 |
| 20260509162019 | 50 | 162 | 7.8 | 16.5 | 0.00 | 0.00 | 0.00 | 94 | 1027.8 |
| 20260509161534 | 50 | 136 | 7.8 | 13.9 | 0.00 | 0.00 | 0.00 | 94 | 1027.8 |
| 20260509161019 | 50 | 125 | 7.0 | 15.6 | 0.00 | 0.00 | 0.00 | 94 | 1027.8 |
| 20260509160520 | 50 | 139 | 7.0 | 15.6 | 0.00 | 0.00 | 0.00 | 94 | 1027.9 |
| 20260509160033 | 50 | 113 | 7.8 | 13.9 | 0.00 | 0.00 | 0.00 | 94 | 1027.9 |
| 20260509155519 | 50 | 123 | 7.0 | 18.2 | 0.00 | 0.00 | 0.00 | 95 | 1027.9 |
| 20260509155019 | 50 | 156 | 7.0 | 18.2 | 0.00 | 0.00 | 0.00 | 95 | 1027.8 |
| 20260509154537 | 50 | 154 | 7.8 | 15.6 | 0.00 | 0.00 | 0.00 | 95 | 1027.8 |
| 20260509154019 | 50 | 94 | 7.0 | 17.4 | 0.00 | 0.00 | 0.00 | 94 | 1027.8 |
| 20260509153520 | 50 | 138 | 6.1 | 17.4 | 0.00 | 0.00 | 0.00 | 94 | 1027.8 |
| 20260509153035 | 50 | 120 | 9.6 | 15.6 | 0.00 | 0.00 | 0.00 | 94 | 1027.7 |
| 20260509152519 | 50 | 111 | 8.7 | 16.5 | 0.00 | 0.00 | 0.00 | 94 | 1027.8 |
| 20260509152024 | 50 | 131 | 8.7 | 18.2 | 0.00 | 0.00 | 0.00 | 94 | 1027.9 |
| 20260509151536 | 50 | 149 | 8.7 | 18.2 | 0.00 | 0.00 | 0.00 | 94 | 1027.8 |
| 20260509151019 | 50 | 163 | 11.3 | 18.2 | 0.00 | 0.00 | 0.00 | 94 | 1027.9 |
| 20260509150519 | 50 | 136 | 8.7 | 18.2 | 0.00 | 0.00 | 0.00 | 94 | 1028.0 |
| 20260509150030 | 50 | 142 | 9.6 | 17.4 | 0.00 | 0.00 | 0.00 | 94 | 1027.9 |
| 20260509145519 | 50 | 147 | 7.0 | 13.9 | 0.00 | 0.00 | 0.00 | 94 | 1028.0 |
| 20260509145022 | 50 | 116 | 7.0 | 15.6 | 0.00 | 0.00 | 0.00 | 94 | 1028.0 |
| 20260509144530 | 50 | 158 | 8.7 | 15.6 | 0.00 | 0.00 | 0.00 | 94 | 1028.0 |
| 20260509144019 | 50 | 180 | 7.8 | 12.2 | 0.00 | 0.00 | 0.00 | 94 | 1028.0 |
| 20260509143521 | 50 | 119 | 7.0 | 15.6 | 0.00 | 0.00 | 0.00 | 94 | 1028.0 |
| 20260509143036 | 50 | 145 | 7.0 | 15.6 | 0.00 | 0.00 | 0.00 | 94 | 1028.0 |
| 20260509142519 | 50 | 165 | 7.0 | 13.9 | 0.00 | 0.00 | 0.00 | 94 | 1028.0 |
| 20260509142019 | 50 | 133 | 7.8 | 14.8 | 0.00 | 0.00 | 0.00 | 94 | 1028.0 |
| 20260509141535 | 50 | 148 | 8.7 | 14.8 | 0.00 | 0.00 | 0.00 | 94 | 1028.0 |
| 20260509141020 | 50 | 123 | 7.8 | 13.9 | 0.00 | 0.00 | 0.00 | 94 | 1028.0 |
| 20260509140520 | 50 | 138 | 7.0 | 12.2 | 0.00 | 0.00 | 0.00 | 94 | 1028.0 |
| 20260509140039 | 50 | 153 | 5.2 | 13.9 | 0.00 | 0.00 | 0.00 | 94 | 1028.2 |
| 20260509135519 | 50 | 126 | 7.0 | 13.9 | 0.00 | 0.00 | 0.00 | 94 | 1028.0 |
| 20260509135019 | 50 | 161 | 8.7 | 13.9 | 0.00 | 0.00 | 0.00 | 94 | 1028.1 |
| 20260509134541 | 50 | 146 | 7.8 | 13.9 | 0.00 | 0.00 | 0.00 | 94 | 1028.1 |
| 20260509134019 | 50 | 146 | 5.2 | 13.9 | 0.00 | 0.00 | 0.00 | 94 | 1028.3 |
| 20260509133519 | 50 | 151 | 6.1 | 13.9 | 0.00 | 0.00 | 0.00 | 94 | 1028.2 |
| 20260509133031 | 50 | 158 | 7.0 | 13.9 | 0.00 | 0.00 | 0.00 | 94 | 1028.3 |
| 20260509132516 | 50 | 145 | 7.0 | 14.8 | 0.00 | 0.00 | 0.00 | 94 | 1028.2 |
| 20260509132018 | 49 | 150 | 7.8 | 14.8 | 0.00 | 0.00 | 0.00 | 94 | 1028.2 |
| 20260509131536 | 49 | 136 | 5.2 | 13.0 | 0.00 | 0.00 | 0.00 | 94 | 1028.2 |
| 20260509131019 | 49 | 130 | 6.1 | 13.0 | 0.00 | 0.00 | 0.00 | 94 | 1028.2 |
| 20260509130519 | 49 | 131 | 7.8 | 13.0 | 0.00 | 0.00 | 0.00 | 94 | 1028.2 |
| 20260509130035 | 49 | 153 | 7.0 | 12.2 | 0.00 | 0.00 | 0.00 | 94 | 1028.2 |
| 20260509125519 | 49 | 130 | 6.1 | 13.0 | 0.00 | 0.00 | 0.00 | 94 | 1028.2 |
| 20260509125019 | 50 | 127 | 6.1 | 13.0 | 0.00 | 0.00 | 0.00 | 94 | 1028.2 |
| 20260509124535 | 50 | 149 | 7.0 | 13.0 | 0.00 | 0.00 | 0.00 | 94 | 1028.2 |
| 20260509124019 | 50 | 86 | 4.3 | 13.9 | 0.00 | 0.00 | 0.00 | 94 | 1028.3 |
| 20260509123519 | 50 | 126 | 4.3 | 13.9 | 0.00 | 0.00 | 0.00 | 94 | 1028.2 |
| 20260509123034 | 50 | 130 | 7.8 | 16.5 | 0.00 | 0.00 | 0.00 | 94 | 1028.2 |
| 20260509122518 | 50 | 163 | 7.8 | 16.5 | 0.00 | 0.00 | 0.00 | 94 | 1028.1 |
| 20260509122021 | 50 | 142 | 8.7 | 16.5 | 0.00 | 0.00 | 0.00 | 93 | 1028.1 |
| 20260509121538 | 50 | 146 | 9.6 | 17.4 | 0.00 | 0.00 | 0.00 | 93 | 1028.2 |
| 20260509121022 | 50 | 151 | 9.6 | 17.4 | 0.00 | 0.00 | 0.00 | 93 | 1028.2 |
| 20260509120519 | 50 | 165 | 7.8 | 14.8 | 0.00 | 0.00 | 0.00 | 93 | 1028.2 |
| 20260509120037 | 50 | 126 | 7.8 | 14.8 | 0.00 | 0.00 | 0.00 | 93 | 1028.2 |
| 20260509115520 | 50 | 140 | 7.8 | 13.9 | 0.00 | 0.00 | 0.00 | 93 | 1028.2 |
| 20260509115019 | 50 | 163 | 7.8 | 13.9 | 0.00 | 0.00 | 0.00 | 93 | 1028.1 |
| 20260509114538 | 49 | 131 | 7.8 | 13.0 | 0.00 | 0.00 | 0.00 | 93 | 1028.2 |
| 20260509114016 | 49 | 132 | 7.8 | 14.8 | 0.00 | 0.00 | 0.00 | 93 | 1028.2 |
| 20260509113520 | 49 | 130 | 7.0 | 14.8 | 0.00 | 0.00 | 0.00 | 93 | 1028.1 |
| 20260509113036 | 49 | 137 | 7.8 | 13.9 | 0.00 | 0.00 | 0.00 | 93 | 1028.2 |
| 20260509112520 | 49 | 161 | 7.0 | 11.3 | 0.00 | 0.00 | 0.00 | 93 | 1028.1 |
| 20260509112023 | 49 | 138 | 5.2 | 12.2 | 0.00 | 0.00 | 0.00 | 92 | 1028.3 |
| 20260509111534 | 49 | 167 | 6.1 | 13.0 | 0.00 | 0.00 | 0.00 | 92 | 1028.2 |
| 20260509111019 | 49 | 123 | 7.8 | 13.0 | 0.00 | 0.00 | 0.00 | 92 | 1028.2 |
| 20260509110519 | 49 | 123 | 6.1 | 13.0 | 0.00 | 0.00 | 0.00 | 92 | 1028.1 |
| 20260509110040 | 49 | 101 | 6.1 | 13.0 | 0.00 | 0.00 | 0.00 | 92 | 1028.1 |
| 20260509105522 | 50 | 160 | 7.0 | 13.0 | 0.00 | 0.00 | 0.00 | 92 | 1028.1 |
| 20260509105020 | 50 | 154 | 6.1 | 10.4 | 0.00 | 0.00 | 0.00 | 92 | 1028.1 |
| 20260509104540 | 50 | 152 | 6.1 | 10.4 | 0.00 | 0.00 | 0.00 | 92 | 1028.1 |
| 20260509104019 | 50 | 119 | 6.1 | 10.4 | 0.00 | 0.00 | 0.00 | 92 | 1028.2 |
| 20260509103519 | 50 | 148 | 3.5 | 8.7 | 0.00 | 0.00 | 0.00 | 91 | 1028.0 |
| 20260509103037 | 50 | 133 | 4.3 | 11.3 | 0.00 | 0.00 | 0.00 | 91 | 1028.1 |
| 20260509102521 | 50 | 147 | 5.2 | 11.3 | 0.00 | 0.00 | 0.00 | 91 | 1028.1 |
| 20260509102020 | 50 | 146 | 5.2 | 9.6 | 0.00 | 0.00 | 0.00 | 91 | 1028.1 |
| 20260509101535 | 50 | 161 | 4.3 | 9.6 | 0.00 | 0.00 | 0.00 | 91 | 1028.2 |
| 20260509101020 | 50 | 175 | 5.2 | 9.6 | 0.00 | 0.00 | 0.00 | 91 | 1028.2 |
| 20260509100519 | 50 | 145 | 5.2 | 9.6 | 0.00 | 0.00 | 0.00 | 90 | 1028.2 |
| 20260509100035 | 50 | 151 | 4.3 | 7.8 | 0.00 | 0.00 | 0.00 | 90 | 1028.1 |
| 20260509095519 | 50 | 151 | 4.3 | 7.8 | 0.00 | 0.00 | 0.00 | 90 | 1028.1 |
| 20260509095020 | 50 | 143 | 3.5 | 8.7 | 0.00 | 0.00 | 0.00 | 90 | 1028.2 |
| 20260509094533 | 50 | 130 | 3.5 | 8.7 | 0.00 | 0.00 | 0.00 | 90 | 1028.1 |
| 20260509094019 | 50 | 131 | 3.5 | 7.0 | 0.00 | 0.00 | 0.00 | 89 | 1028.0 |
| 20260509093522 | 50 | 117 | 1.7 | 7.0 | 0.00 | 0.00 | 0.00 | 89 | 1028.0 |
| 20260509093038 | 50 | 113 | 2.6 | 7.0 | 0.00 | 0.00 | 0.00 | 89 | 1027.9 |
| 20260509092520 | 50 | 0 | 1.7 | 6.1 | 0.00 | 0.00 | 0.00 | 89 | 1027.9 |
| 20260509092020 | 50 | 113 | 1.7 | 6.1 | 0.00 | 0.00 | 0.00 | 89 | 1027.8 |
| 20260509091537 | 50 | 130 | 1.7 | 7.8 | 0.00 | 0.00 | 0.00 | 89 | 1027.9 |
| 20260509091019 | 50 | 134 | 2.6 | 7.8 | 0.00 | 0.00 | 0.00 | 89 | 1028.0 |
| 20260509090520 | 50 | 129 | 1.7 | 4.3 | 0.00 | 0.00 | 0.00 | 88 | 1028.0 |
| 20260509090035 | 50 | 129 | 0.9 | 4.3 | 0.00 | 0.00 | 0.00 | 88 | 1028.0 |
| 20260509085519 | 51 | 134 | 1.7 | 3.5 | 0.00 | 0.00 | 0.00 | 88 | 1028.0 |
| 20260509085017 | 51 | 139 | 1.7 | 6.1 | 0.00 | 0.00 | 0.00 | 88 | 1028.0 |
| 20260509084540 | 51 | 142 | 2.6 | 6.1 | 0.00 | 0.00 | 0.00 | 88 | 1027.9 |
| 20260509084020 | 51 | 139 | 1.7 | 4.3 | 0.00 | 0.00 | 0.00 | 88 | 1028.0 |
| 20260509083522 | 51 | 128 | 1.7 | 6.1 | 0.00 | 0.00 | 0.00 | 88 | 1027.9 |
| 20260509083039 | 51 | 138 | 2.6 | 7.0 | 0.00 | 0.00 | 0.00 | 88 | 1027.9 |
| 20260509082520 | 51 | 136 | 2.6 | 8.7 | 0.00 | 0.00 | 0.00 | 87 | 1027.8 |
| 20260509082018 | 51 | 141 | 4.3 | 11.3 | 0.00 | 0.00 | 0.00 | 87 | 1027.6 |
| 20260509081537 | 52 | 130 | 7.0 | 11.3 | 0.00 | 0.00 | 0.00 | 87 | 1027.6 |
| 20260509081018 | 52 | 152 | 7.0 | 13.0 | 0.00 | 0.00 | 0.00 | 87 | 1027.4 |
| 20260509080520 | 52 | 134 | 7.8 | 13.0 | 0.00 | 0.00 | 0.00 | 87 | 1027.4 |
| 20260509080054 | 52 | 116 | 7.0 | 13.0 | 0.00 | 0.00 | 0.00 | 86 | 1027.3 |
| 20260509075517 | 52 | 143 | 6.1 | 13.0 | 0.00 | 0.00 | 0.00 | 86 | 1027.2 |
| 20260509075022 | 52 | 121 | 5.2 | 9.6 | 0.00 | 0.00 | 0.00 | 85 | 1027.3 |
| 20260509074535 | 52 | 136 | 3.5 | 9.6 | 0.00 | 0.00 | 0.00 | 85 | 1027.3 |
| 20260509074017 | 53 | 146 | 3.5 | 9.6 | 0.00 | 0.00 | 0.00 | 84 | 1027.2 |
| 20260509073517 | 53 | 152 | 4.3 | 9.6 | 0.00 | 0.00 | 0.00 | 84 | 1027.2 |
| 20260509073110 | 53 | 140 | 4.3 | 8.7 | 0.00 | 0.00 | 0.00 | 84 | 1027.1 |
| 20260509072517 | 53 | 119 | 3.5 | 8.7 | 0.00 | 0.00 | 0.00 | 83 | 1027.1 |
| 20260509072018 | 53 | 143 | 4.3 | 9.6 | 0.00 | 0.00 | 0.00 | 83 | 1027.0 |
| 20260509071530 | 54 | 135 | 5.2 | 9.6 | 0.00 | 0.00 | 0.00 | 82 | 1026.9 |
| 20260509071020 | 54 | 150 | 4.3 | 9.6 | 0.00 | 0.00 | 0.00 | 82 | 1027.0 |
| 20260509070520 | 54 | 126 | 4.3 | 10.4 | 0.00 | 0.00 | 0.00 | 82 | 1027.0 |
| 20260509070041 | 54 | 122 | 5.2 | 10.4 | 0.00 | 0.00 | 0.00 | 82 | 1026.8 |
| 20260509065522 | 55 | 150 | 5.2 | 11.3 | 0.00 | 0.00 | 0.00 | 81 | 1026.7 |
| 20260509065017 | 55 | 136 | 7.0 | 12.2 | 0.00 | 0.00 | 0.00 | 81 | 1026.8 |
| 20260509064544 | 55 | 127 | 5.2 | 14.8 | 0.00 | 0.00 | 0.00 | 80 | 1026.8 |
| 20260509064020 | 55 | 126 | 7.0 | 14.8 | 0.00 | 0.00 | 0.00 | 80 | 1026.8 |
| 20260509063518 | 55 | 149 | 6.1 | 14.8 | 0.00 | 0.00 | 0.00 | 80 | 1026.8 |
| 20260509063035 | 56 | 172 | 6.1 | 14.8 | 0.00 | 0.00 | 0.00 | 79 | 1026.7 |
| 20260509062517 | 56 | 130 | 10.4 | 14.8 | 0.00 | 0.00 | 0.00 | 79 | 1026.7 |
| 20260509062018 | 56 | 153 | 8.7 | 14.8 | 0.00 | 0.00 | 0.00 | 79 | 1026.6 |
| 20260509061546 | 56 | 117 | 8.7 | 14.8 | 0.00 | 0.00 | 0.00 | 78 | 1026.6 |